#timestamp,LO_Frequency,Hit,StdDev 
1531220415.8,286046998.5,N
1531220435.6,286046998.1,N
1531220455.4,286046999.9,N
1531220475.3,286047000.9,N
1531220495.1,286047001.2,N
1531220515.8,286047001.0,N
1531220535.7,286047000.8,N
1531220555.5,286047001.0,N
1531220575.4,286047000.2,N
1531220595.2,286047000.2,N
1531220615.0,286046999.9,N
1531220615.9,286046999.9,N
1531220635.8,286047000.6,N
1531220655.6,286047002.7,N
1531220675.5,286047002.7,N
1531220695.3,286047002.3,N
1531220715.1,286047000.1,N
1531220735.9,286047000.1,N
1531220755.0,286047000.3,N
1531220755.9,286047000.3,N
1531220775.8,286046998.4,N
1531220795.6,286046998.4,N
1531220815.4,286047000.7,N
1531220835.3,286047001.1,N
1531220855.1,286046998.1,N
1531220875.9,286047000.1,N
1531220895.7,286047001.0,N
1531220915.5,286047000.2,N
1531220935.4,286047000.4,N
1531220955.2,286047001.0,N
1531220975.0,286046998.5,N
1531220975.9,286046998.5,N
1531220995.8,286047000.6,N
1531221015.6,286046998.1,N
1531221035.5,286047001.1,N
1531221055.3,286047000.5,N
1531221075.1,286047000.8,N
1531221095.9,286046999.8,N
1531221115.7,286047000.3,N
1531221135.5,286047000.6,N
1531221155.4,286047000.3,N
1531221175.2,286047000.2,N
1531221195.1,286047002.3,N
1531221196.0,286047002.3,N
1531221215.8,286047002.3,N
1531221235.6,286047001.9,N
1531221255.5,286046999.7,N
1531221275.3,286047002.1,N
1531221295.1,286047002.7,N
1531221315.9,286047002.0,N
1531221335.7,286047002.3,N
1531221355.6,286047000.3,N
1531221375.4,286047000.2,N
1531221395.2,286047002.8,N
1531221415.1,286047000.0,N
1531221416.0,286047000.0,N
1531221435.8,286047000.7,N
1531221455.7,286046998.3,N
1531221475.5,286046999.7,N
1531221495.3,286047000.2,N
1531221515.2,286047000.5,N
1531221535.9,286046998.5,N
1531221555.7,286046998.4,N
1531221575.6,286046998.2,N
1531221595.4,286047000.4,N
1531221615.2,286047000.9,N
1531221635.1,286047000.3,N
1531221636.0,286047000.3,N
1531221655.8,286046998.3,N
1531221675.7,286046998.6,N
1531221695.5,286047000.9,N
1531221715.3,286046998.6,N
1531221735.2,286047001.2,N
1531221755.0,286047001.0,N
1531221755.9,286047001.0,N
1531221775.8,286047000.1,N
1531221795.6,286047000.6,N
1531221815.4,286047000.8,N
1531221835.3,286047000.1,N
1531221855.1,286047001.9,N
1531221875.9,286047001.8,N
1531221895.7,286047002.0,N
1531221915.5,286047002.6,N
1531221935.4,286047002.5,N
1531221955.2,286046999.9,N
1531221975.0,286047002.7,N
1531221975.9,286047002.7,N
1531221995.8,286046999.8,N
1531222015.6,286047000.0,N
1531222035.5,286047002.7,N
1531222055.3,286047001.4,N
1531222075.1,286047001.9,N
1531222095.3,286047002.0,N
1531222115.2,286047003.6,N
1531222135.0,286047004.3,Y
1531222135.9,286047004.3,P
1531222155.8,286046999.8,N
1531222175.6,286047002.7,N
1531222195.5,286047002.7,N
1531222215.4,286047002.8,N
1531222235.2,286047000.3,N
1531222255.1,286047000.8,N
1531222256.0,286047000.8,N
1531222275.8,286046998.2,N
1531222295.6,286046998.3,N
1531222315.5,286047001.1,N
1531222335.3,286046998.1,N
1531222355.1,286046998.3,N
1531222375.9,286046999.3,N
1531222395.7,286046999.6,N
1531222415.6,286046996.9,N
1531222435.4,286046996.7,N
1531222455.2,286046997.8,N
1531222475.1,286046996.2,N
1531222476.0,286046996.2,N
1531222495.8,286046996.0,N
1531222515.7,286046995.1,N
1531222535.5,286046996.2,N
1531222555.3,286046995.6,N
1531222575.2,286046995.3,N
1531222595.0,286046995.3,N
1531222595.9,286046995.3,N
1531222615.8,286046995.4,N
1531222635.6,286046997.6,N
1531222655.4,286046997.3,N
1531222675.3,286046998.0,N
1531222695.1,286046997.9,N
1531222715.8,286046995.1,N
1531222735.7,286046998.0,N
1531222755.5,286046997.9,N
1531222775.4,286046994.9,N
1531222795.2,286046995.9,N
1531222815.0,286046993.9,Y
1531222815.9,286046993.9,P
1531222835.8,286046999.2,N
1531222855.6,286046997.0,N
1531222875.5,286046998.7,N
1531222895.3,286046999.3,N
1531222915.1,286046998.6,N
1531222935.9,286046998.4,N
1531222955.7,286046998.6,N
1531222975.6,286046998.8,N
1531222995.4,286046997.0,N
1531223015.3,286046997.0,N
1531223035.1,286046997.3,N
1531223036.0,286046997.3,N
1531223055.8,286046997.5,N
1531223075.7,286046998.0,N
1531223095.5,286046995.0,Y
1531223115.4,286046999.5,P
1531223135.2,286046998.3,N
1531223155.0,286047001.1,N
1531223155.9,286047001.1,N
1531223175.8,286046998.7,N
1531223195.6,286046998.6,N
1531223215.4,286047000.9,N
1531223235.3,286046998.6,N
1531223255.1,286047001.1,N
1531223275.9,286047000.6,N
1531223295.7,286046999.9,N
1531223315.5,286046998.2,N
1531223335.4,286046998.2,N
1531223355.2,286046998.4,N
1531223375.0,286046998.8,N
1531223375.9,286046998.8,N
1531223395.8,286046999.6,N
1531223415.6,286046997.0,N
1531223435.5,286046996.5,N
1531223455.3,286046996.7,N
1531223475.1,286046996.8,N
1531223495.9,286046999.2,N
1531223515.7,286046999.4,N
1531223535.5,286046999.3,N
1531223555.4,286046999.0,N
1531223575.2,286046998.4,N
1531223595.1,286046998.9,N
1531223596.0,286046998.9,N
1531223615.8,286046999.4,N
1531223635.6,286046997.0,N
1531223655.5,286046997.4,N
1531223675.3,286046997.3,N
1531223695.1,286046997.6,N
1531223715.9,286046997.0,N
1531223735.7,286046997.5,N
1531223755.6,286046997.8,N
1531223775.4,286046998.0,N
1531223795.2,286046997.5,N
1531223815.1,286046997.1,N
1531223816.0,286046997.1,N
1531223835.8,286046997.1,N
1531223855.6,286046997.7,N
1531223875.5,286046996.8,Y
1531223895.3,286046998.8,P
1531223915.2,286047000.8,N
1531223935.9,286046998.2,N
1531223955.7,286046998.4,N
1531223975.6,286046998.1,N
1531223995.4,286046998.1,N
